Location: Chandolas
(44.4033°N, 4.2533°E)
Time: 08:59:15
(UTC+00:00)

Cosmos 1980 Rocket - Pass Details

Date: 15 November 2019
Orbit: 828 x 851 km, 71.0° (Epoch: 12 December)

Event Time Altitude Azimuth Distance (km) Brightness Sun altitude
Exits shadow 05:30:01 16° 299° (WNW) 2,105 3.7 -12.3°
Maximum altitude 05:33:00 24° 259° (WSW) 1,709 3.3 -11.8°
Drops below altitude 10° 05:37:24 10° 208° (SSW) 2,465 4.5 -11.1°
Sets 05:40:16 0° 194° (SSW) 3,391 5.4 -10.6°
